Zurück zum Katalog

STARLINK-34689

AktivKommunikationSSO
NORAD 64949·PAYLOAD·🇺🇸 United States

Gestartet Jul 26, 2025 von Vandenberg Space Force Base

Loading…

Nächste Überflüge (nächste 24 Stunden)

TLE

AktuellSource: CelesTrak SupGP

Epoche: Sep 14, 2026, 21:37 UTC

1 64949C 25158T   26257.90118056  .00039532  00000+0  12270-2 0  2577
2 64949  97.2842 116.2807 0001550  95.9592  57.7545 15.33423941    10

Verfolge STARLINK-34689 in Echtzeit mit AllMySat

Download on the App Store